View from above orbital plane
|
View from above satellite
|
Ground track
|
The orbit data is extracted from the following two-line orbital elements,
1 32378U 07060A 20353.95514321 0.00000000 00000-0 00000-0 0 02
2 32378 63.3279 35.9599 7425143 269.9515 90.0485 2.00620031 08
Epoch (UTC): | 18 December 2020 22:55:24 |
Eccentricity: | 0.7425143 |
inclination: | 63.3279° |
perigee height: | 459 km |
apogee height: | 39894 km |
right ascension of ascending node: | 35.9599° |
argument of perigee: | 269.9515° |
revolutions per day: | 2.00620031 |
mean anomaly at epoch: | 90.0485° |
orbit number at epoch: | 0 |
The dashed part of the orbit path shows where the satellite is in the earth's shadow,
|
|